Location: Avramdancu
(46.3833°N, 22.7833°E)
Time: 15:19:44
(UTC+00:00)

Daily predictions for brighter satellites

Satellite Brightness Start Highest point End
(mag) Time Altitude Azimuth Time Altitude Azimuth Time Altitude Azimuth
NOSS 3-1 (C) 4.2 15:52:18 10° NW 15:59:51 89° SW 16:08:34 10° SE
Lacrosse 5 2.0 15:54:51 10° SW 15:59:56 86° NW 16:05:01 10° NE
USA 215 4.0 15:54:03 10° E 16:00:02 40° NNE 16:06:01 10° NW
Cosmos 2056 Rocket 3.7 15:55:29 10° SSW 16:00:42 81° WNW 16:05:53 10° NNE
Meteor 2-10 4.0 15:55:40 10° S 16:00:48 89° ESE 16:05:52 10° NNE
ERBS 2.2 15:57:50 10° SW 16:01:10 79° SE 16:04:32 10° NE
Cosmos 676 Rocket 4.0 15:56:02 10° NNW 16:01:15 86° ENE 16:06:27 10° SSE
COSMO-SKYMED 1 3.4 15:57:26 10° NNE 16:01:17 30° E 16:05:06 10° SSE
Okean 1-7 Rocket 4.4 15:57:08 10° NNW 16:01:32 57° W 16:05:50 10° S
Envisat 4.0 15:57:44 10° S 16:02:41 54° W 16:07:41 10° NNW
USA 306 3.9 15:59:08 10° W 16:03:11 40° NNW 16:07:15 10° NE
ATLAS CENTAUR R/B 4.2 16:01:38 10° WNW 16:04:18 19° WSW 16:07:02 10° SSW
H-2A R/B 3.5 16:00:44 10° ESE 16:04:27 19° ENE 16:08:12 10° NNE
USA 276 2.1 16:06:01 10° WNW 16:09:15 85° NNE 16:12:27 10° ESE
Cosmos 1850 Rocket 4.4 16:05:45 10° N 16:10:50 44° ENE 16:15:53 10° SE
Okean-O 3.4 16:07:00 10° SE 16:10:53 31° ENE 16:14:47 10° N
SeaSat 1 3.4 16:07:48 10° ESE 16:11:55 27° NE 16:16:03 10° N
Meteor 1-21 Rocket 4.4 16:06:22 10° N 16:12:21 90° W 16:18:15 10° S
SAR-Lupe-4 3.7 16:09:00 10° NNE 16:12:31 51° E 16:16:01 10° S
Cosmos 1328 4.2 16:10:01 10° N 16:13:45 39° ENE 16:17:28 10° SSE
NOAA 11 4.2 16:09:34 10° SSE 16:15:02 79° ENE 16:20:30 10° NNW
H-2A R/B 3.7 16:12:27 10° N 16:16:21 36° WNW 16:20:09 10° SW
COSMOS 2487 3.3 16:13:53 10° N 16:16:54 27° ENE 16:19:54 10° ESE
Cosmos 1452 Rocket 3.7 16:12:34 10° S 16:17:39 53° ESE 16:22:47 10° NNE
Cosmos 2098 Rocket 2.5 16:16:03 10° N 16:19:37 76° W 16:22:39 10° S
Cosmos 1825 Rocket 4.2 16:17:16 10° N 16:21:25 35° ENE 16:25:30 10° SE
YAOGAN 1 3.3 16:18:43 10° SE 16:22:30 30° ENE 16:26:18 10° N
Cosmos 1300 4.0 16:21:17 10° SE 16:24:06 20° E 16:26:55 10° NE
Cosmos 1656 Rocket 3.7 16:18:38 10° SSW 16:24:10 86° ESE 16:29:51 10° NNE
Cosmos 304 Rocket 3.7 16:19:47 10° SSW 16:24:33 80° ESE 16:29:21 10° NNE
Cosmos 2266 Rocket 3.9 16:20:01 10° N 16:26:12 77° E 16:32:28 10° SSE
CZ-2C R/B 3.8 16:21:23 10° SE 16:26:44 39° ENE 16:32:01 10° N
Cosmos 2297 Rocket 3.6 16:23:24 10° N 16:27:23 19° NE 16:30:18 13° ENE
Cosmos 2369 Rocket 3.0 16:21:52 10° SW 16:27:24 54° WNW 16:33:01 10° NNE
SAR-Lupe-1 4.0 16:26:51 10° NNE 16:30:28 79° ESE 16:34:03 10° S
Cosmos 1726 3.9 16:28:40 10° SW 16:32:08 36° WNW 16:35:38 10° N
Cosmos 1758 Rocket 3.5 16:32:18 10° N 16:36:45 65° E 16:41:06 10° SSE
Cosmos 1818 3.6 16:31:40 10° SW 16:37:06 89° SE 16:42:35 10° NE
Cosmos 1689 Rocket 1.8 16:36:48 10° NNE 16:39:42 78° E 16:42:35 10° S
Cosmos 1726 Rocket 4.1 16:36:00 10° SSE 16:39:52 33° E 16:43:48 10° NNE
Meteor 2-21 4.4 16:35:24 10° N 16:41:35 72° E 16:47:42 10° SSE
Meteor 2-14 Rocket 4.4 16:35:32 10° N 16:41:42 68° ENE 16:47:48 10° SSE
USA 307 4.2 16:39:33 10° WNW 16:43:26 32° N 16:46:32 14° NE
Cosmos 2219 4.3 16:41:43 10° N 16:46:29 26° NE 16:48:58 20° E
PSLV R/B 3.9 16:42:32 10° NNE 16:46:46 76° ESE 16:50:55 10° S
Ariane Rocket 4.5 16:46:29 17° ENE 16:47:04 17° ENE 16:50:19 10° NNE
Helios 1A Rocket 2.8 16:43:48 10° SSE 16:47:56 82° ENE 16:52:05 10° NNW
Cosmos 1953 3.9 16:44:17 10° SW 16:47:59 38° WNW 16:51:43 10° N
USA 308 4.2 16:44:12 10° WNW 16:48:03 31° N 16:50:55 15° NE
SKYMED 2 3.6 16:45:08 10° NNE 16:49:30 87° WNW 16:53:51 10° SSW
NOSS 2-1 (E) 4.2 16:47:58 10° WSW 16:51:07 39° NW 16:54:35 10° NNE
Gbstr 26 Del rocket 4.3 16:45:27 10° WNW 16:52:00 79° SSW 16:59:04 13° SE
Cosmos 1606 Rocket 3.5 16:48:16 10° S 16:52:30 57° E 16:56:49 10° NNE
Geosat 3.9 16:47:50 10° NNE 16:52:52 71° ESE 16:57:52 10° SSW
SL-4 R/B 1.8 16:52:02 10° WSW 16:55:35 72° NNW 16:57:35 26° ENE
FALCON 9 DEB 3.8 16:52:37 10° W 16:55:57 48° NNW 16:57:46 23° NE
GEOS 3 Rocket 3.8 16:51:55 10° SE 16:57:13 76° SW 17:02:38 10° NW
Cosmos 1340 3.6 17:04:12 10° N 17:06:53 29° NE 17:06:53 29° NE
Cosmos 2058 Rocket 3.3 17:05:41 10° SSE 17:09:54 44° E 17:14:11 10° NNE
Cosmos 1331 Rocket 3.9 17:05:17 10° S 17:10:20 59° ESE 17:15:25 10° NNE
Meteor 2-16 Rocket 4.3 17:07:09 10° N 17:13:17 81° E 17:19:22 10° SSE
Cosmos 2228 3.0 17:10:05 10° SSW 17:14:18 79° W 17:18:35 10° N
BREEZE-M R/B 3.8 17:11:06 10° W 17:15:03 65° N 17:19:02 26° ENE
Cosmos 1953 Rocket 3.5 17:13:29 10° N 17:17:54 89° E 17:22:19 10° S
Cosmos 292 Rocket 3.9 17:13:26 10° S 17:18:02 49° ESE 17:20:28 26° NE
Aureole 3 Rocket 2.7 17:18:00 51° ESE 17:18:10 52° E 17:22:22 10° NNE
MOS 1 Rocket 3.2 17:15:52 10° NNE 17:20:19 61° E 17:25:00 10° S
CZ-4C R/B 4.5 17:19:38 10° NW 17:23:43 18° N 17:27:40 12° NE
CZ-4 R/B 2.3 17:21:49 10° S 17:25:39 48° W 17:29:28 10° NNW
Cosmos 2227 Rocket 2.7 17:25:37 10° NNW 17:30:54 38° NE 17:31:21 38° ENE
Cosmos 1110 Rocket 4.0 17:26:42 10° SSW 17:31:59 84° WNW 17:37:15 10° NNE
Cosmos 1553 Rocket 3.9 17:28:03 10° S 17:34:22 66° E 17:40:38 10° NNE
Milstar 3 4.5 17:30:38 10° SSW 17:34:48 17° SSE 17:36:16 16° SSE
Cosmos 1302 Rocket 4.1 17:30:28 10° S 17:35:31 51° ESE 17:35:40 51° E
ERBS 4.3 17:35:05 10° WNW 17:37:45 22° NNW 17:38:17 21° N
USA 305 4.2 17:34:10 10° WNW 17:37:58 29° N 17:38:31 28° NNE
ATLAS 5 CENTAUR R/B 3.9 17:35:51 10° WNW 17:39:02 19° NNW 17:42:31 10° NNE
USA 215 3.2 17:40:04 41° ESE 17:42:32 75° NNE 17:49:04 10° NW
H-2A R/B 2.3 17:37:56 10° S 17:43:16 73° WSW 17:48:43 10° NNW
Lacrosse 5 3.3 17:38:59 10° W 17:43:29 31° NNW 17:45:37 22° NNE
USA 306 4.2 17:40:13 10° WNW 17:44:00 29° N 17:44:16 29° N
ATLAS 2AS CENTAUR R/B 4.2 17:38:21 10° NW 17:44:28 24° NNE 17:46:54 21° NE
Cosmos 1892 4.2 17:40:58 10° N 17:42:51 27° N 17:42:51 27° N
USA 276 4.4 17:42:50 10° W 17:45:12 19° SW 17:45:14 19° SW
Cosmos 968 Rocket 4.0 17:40:17 10° N 17:44:38 42° NE 17:44:38 42° NE
ARGOS 3.1 17:42:15 22° SSE 17:45:49 90° ENE 17:51:18 10° NNW
Cosmos 2263 Rocket 4.3 17:46:07 10° N 17:47:57 13° NNE 17:47:57 13° NNE
SeaSat 1 3.1 17:45:48 19° S 17:49:10 54° WSW 17:54:01 10° NW
CZ-2C R/B 4.2 17:45:38 10° NNE 17:47:37 22° NNE 17:47:37 22° NNE
CSL-04 Rocket 4.2 17:46:30 10° S 17:51:59 61° WSW 17:57:29 10° NNW
Cosmos 1745 Rocket 3.8 17:52:31 10° N 17:58:48 79° E 18:00:55 45° SSE
Cosmos 1400 Rocket 4.0 18:02:34 10° SSW 18:12:03 - N 18:05:30 40° SW
IRS-1A Rocket 4.1 18:09:32 77° NE 18:09:32 77° NE 18:14:55 10° NNW
EO 1 Delta rocket 4.5 18:06:19 10° N 18:10:35 52° N 18:10:35 52° N
Cosmos 2297 Rocket 2.1 18:06:34 10° NNW 18:12:08 85° N 18:12:08 85° N
NOSS 2-2 (C) 4.4 18:09:32 10° NW 18:15:08 88° NE 18:15:46 75° SE
Ariane Rocket 3.6 18:26:41 51° NNW 18:26:41 51° NNW 18:30:34 10° NNW
Cosmos 1709 Rocket 4.3 18:23:10 10° N 18:28:15 58° NNE 18:28:15 58° NNE
Cosmos 2219 3.5 18:25:26 10° NNW 18:30:55 63° W 18:30:55 63° W
CZ-4C R/B 4.2 19:08:46 10° NNW 19:12:50 26° N 19:12:50 26° N
Cosmos 2227 Rocket 3.8 19:09:46 10° NW 19:13:12 30° WNW 19:13:12 30° WNW
USA 215 4.5 19:27:26 33° W 19:27:26 33° W 19:31:53 10° WNW
ATLAS 2AS CENTAUR R/B 4.0 19:29:49 10° NW 19:34:19 35° NNW 19:34:19 35° NNW
